Location: Auckland
(36.8670°S, 174.7670°E)
Time: 16:11:42
(UTC+12:00)

Vanguard 2 - Visible Passes

Search period start: 22 July 2019 00:00
Search period end: 01 August 2019 00:00
Orbit: 553 x 2938 km, 32.9° (Epoch: 21 July)

Date Brightness Start Highest point End Pass type
(mag) Time Alt. Az. Time Alt. Az. Time Alt. Az.
22 Jul 12.2 19:04:11 10° WNW 19:12:23 16° NW 19:21:20 10° N visible
25 Jul 12.2 17:47:17 10° WNW 17:55:19 18° NW 18:04:48 10° N visible
26 Jul 12.4 18:09:13 10° NW 18:13:21 12° NW 18:17:48 10° NNW visible
31 Jul 9.7 06:46:20 10° N 06:48:12 13° NNE 06:50:03 10° NE visible
